Voltar ao catálogo

STARLINK-30307

AtivoComunicaçõesVLEO
NORAD 57747·PAYLOAD·🇺🇸 United States

Lançado Sep 1, 2023 de Cape Canaveral Space Force Station

Loading…

Próximas Passagens (próximas 24 horas)

TLE

AtualizadoSource: CelesTrak SupGP

Época: Sep 15, 2026, 02:06 UTC

1 57747C 23131R   26258.08798611 -.00021115  00000+0 -76490-3 0  2581
2 57747  43.0031 183.0064 0001223 269.3598 336.2262 15.27584770    16

Acompanhe STARLINK-30307 em tempo real com AllMySat

Download on the App Store